Location: Kerb�bon
(47.7970°N, 3.3487°W)
Time: 13:05:05
(UTC+00:00)

Spot 2 Rocket - Pass Details

Date: 12 May 2021
Orbit: 757 x 771 km, 98.5° (Epoch: 18 June)

Event Time Altitude Azimuth Distance (km) Brightness Sun altitude
Exits shadow 21:24:50 19° 163° (SSE) 1,755 4.8 -14.2°
Maximum altitude 21:28:32 88° 76° (ENE) 767 3.5 -14.6°
Drops below altitude 10° 21:33:36 10° 346° (NNW) 2,299 7.0 -15.2°
Sets 21:35:55 0° 346° (NNW) 3,229 8.0 -15.4°
